Location: Unspecified
(0.0000°N, 0.0000°E)
Time: 07:05:12
(UTC+00:00)

Amateur Radio Satellites - All Passes

Search period start: 25 June 2017 06:35
Search period end: 26 June 2017 06:35
Location: Unspecified, 0.0000°N, 0.0000°E

Satellite Date Start Highest point End Downlink Frequencies (MHz)
Time Altitude Azimuth
CUTE 1.7 + AOD 2 25 Jun 06:38:22 06:42:14 38° 101° (E) 06:46:10 437.475
KAITUO 1B 25 Jun 06:39:14 06:41:49 18° 281° (W) 06:44:25 145.475/437.950
HO-68 25 Jun 06:40:31 06:47:25 52° 104° (ESE) 06:54:19 435.675
CUBEBUG 2 25 Jun 06:42:37 06:45:44 18° 101° (E) 06:48:47 437.445
XW-2A 25 Jun 06:44:19 06:47:13 27° 101° (E) 06:50:06 145.665 - 145.685
RS-15 25 Jun 06:44:41 06:56:00 60° 69° (ENE) 07:06:45 29.354- 29.394
BEESAT 3 25 Jun 06:51:25 06:55:15 58° 68° (ENE) 06:59:02 437.485
NO-84 25 Jun 06:59:43 07:03:42 80° 56° (ENE) 07:07:22 435.350 FM
ZACube-1 25 Jun 07:16:03 07:17:32 12° 101° (ESE) 07:18:59 437.345
AAUSAT CUBESAT 2 25 Jun 07:16:09 07:19:38 27° 102° (ESE) 07:23:08 437.432
UWE-3 25 Jun 07:17:13 07:20:58 28° 101° (E) 07:24:40 435.000/436.395/437.385
O/OREOS (USA 219) 25 Jun 07:25:55 07:29:29 24° 76° (ENE) 07:33:05 437.305
STRAND 1 25 Jun 07:35:11 07:39:58 40° 257° (WSW) 07:44:44 437.568
SRMSAT 25 Jun 07:36:04 07:39:38 16° 167° (SSE) 07:43:13 437.500
JUGNU 25 Jun 07:40:23 07:46:12 61° 159° (SSE) 07:52:03 437.505
BEESAT 2 25 Jun 07:48:31 07:52:28 81° 250° (WSW) 07:56:24 435.950
SEEDS 25 Jun 07:58:26 08:01:46 24° 281° (WNW) 08:05:08 437.485
AO-73 25 Jun 08:14:43 08:18:58 80° 101° (E) 08:23:10 145.935
CUBEBUG 2 25 Jun 08:18:51 08:22:04 19° 282° (WNW) 08:25:14 437.445
HO-68 25 Jun 08:30:41 08:34:48 16° 285° (WNW) 08:38:55 435.675
Oscar 11 25 Jun 08:42:41 08:46:51 54° 282° (WNW) 08:51:04 .
YUBILEINY 25 Jun 08:47:04 08:55:36 57° 87° (E) 09:04:06 435.215
DELFI C3 25 Jun 08:49:02 08:52:28 29° 102° (ESE) 08:55:56 145.870
ZACube-1 25 Jun 08:49:57 08:53:33 26° 282° (WNW) 08:57:06 437.345
FO-29 25 Jun 08:51:02 08:55:38 29° 76° (ENE) 09:00:33 435.910
AAUSAT CUBESAT 2 25 Jun 08:53:57 08:54:49 11° 281° (WNW) 08:55:42 437.432
UWE-3 25 Jun 08:55:38 08:57:07 12° 282° (WNW) 08:58:36 435.000/436.395/437.385
RS-15 25 Jun 08:59:47 09:07:52 23° 248° (WSW) 09:15:49 29.354- 29.394
O/OREOS (USA 219) 25 Jun 09:06:16 09:08:37 14° 255° (WSW) 09:10:58 437.305
M-CUBED/EXP-1 PRIME 25 Jun 09:08:13 09:11:56 86° 75° (ENE) 09:15:22 437.505
TIGRISAT 25 Jun 09:17:15 09:21:20 37° 78° (ENE) 09:25:30 435.000
PRISM 25 Jun 09:21:16 09:25:12 48° 78° (ENE) 09:29:07 437.425
SRMSAT 25 Jun 09:23:53 09:29:19 35° 161° (SSE) 09:34:47 437.500
JUGNU 25 Jun 09:29:33 09:35:15 49° 339° (NNW) 09:41:00 437.505
EO-88 25 Jun 09:57:22 10:00:38 32° 281° (WNW) 10:03:56 145.990 - 145.960
UNISAT 6 25 Jun 09:58:57 10:03:14 48° 258° (WSW) 10:07:35 437.425
PCSat 25 Jun 10:10:41 10:16:04 72° 109° (ESE) 10:21:27 145.827
AIST 2D 25 Jun 10:11:54 10:13:39 13° 79° (E) 10:15:23 435.315
LO-87 25 Jun 10:22:01 10:25:19 33° 101° (ESE) 10:28:38 145.935 - 145.965
FO-29 25 Jun 10:37:00 10:40:32 18° 259° (W) 10:44:15 435.910
YUBILEINY 25 Jun 10:46:49 10:51:59 17° 267° (W) 10:57:12 435.215
POLYITAN 1 25 Jun 10:54:53 10:58:23 25° 78° (ENE) 11:01:53 437.675
ESTCUBE 1 25 Jun 10:55:50 11:00:12 56° 102° (ESE) 11:04:38 437.505/2401.250
QB50P2 25 Jun 11:05:11 11:09:11 40° 78° (ENE) 11:13:09 145.880/145.840
SRMSAT 25 Jun 11:12:34 11:18:37 86° 338° (NNW) 11:24:38 437.500
JUGNU 25 Jun 11:20:17 11:24:35 20° 344° (NNW) 11:28:55 437.505
SO-50 25 Jun 11:21:34 11:24:09 15° 113° (ESE) 11:26:44 436.795
SPROUT 25 Jun 11:25:55 11:29:23 24° 102° (ESE) 11:32:51 437.525
EO-79 25 Jun 11:29:39 11:33:52 87° 76° (ENE) 11:38:05 145.935-145.965
DUCHIFAT 1 25 Jun 11:44:18 11:48:29 76° 259° (W) 11:52:40 145.980
AIST 2D 25 Jun 11:44:28 11:46:35 15° 259° (WSW) 11:48:41 435.315
50 SAT 25 Jun 11:48:17 11:50:02 13° 102° (ESE) 11:51:48 437.505
NANOSAT C BR1 25 Jun 11:52:40 11:56:43 47° 258° (WSW) 12:00:46 145.865
Oscar 19 25 Jun 12:30:27 12:34:50 28° 77° (ENE) 12:39:11 437.125/150
POLYITAN 1 25 Jun 12:32:11 12:33:53 12° 258° (WSW) 12:35:37 437.675
VELOX 1 25 Jun 12:36:23 12:40:24 35° 282° (WNW) 12:44:28 145.980
BUGSAT 1 25 Jun 12:56:52 13:00:25 30° 258° (WSW) 13:04:00 437.445
DX 1 25 Jun 12:57:08 13:01:29 76° 282° (WNW) 13:05:52 434.975-435.025
SO-50 25 Jun 13:00:28 13:04:23 27° 292° (WNW) 13:08:15 436.795
SRMSAT 25 Jun 13:02:37 13:07:54 32° 341° (NNW) 13:13:13 437.500
SPROUT 25 Jun 13:02:58 13:05:01 13° 282° (WNW) 13:07:03 437.525
JUGNU 25 Jun 13:12:48 13:14:29 11° 353° (N) 13:16:10 437.505
UKube-1 25 Jun 13:15:15 13:19:32 70° 282° (WNW) 13:23:51 .
Gurwin Techsat 1B 25 Jun 13:19:20 13:24:34 60° 77° (ENE) 13:29:47 435.225
50 SAT 25 Jun 13:20:51 13:22:33 13° 281° (WNW) 13:24:16 437.505
MOZHAYETS 4 25 Jun 14:08:27 14:10:54 14° 102° (ESE) 14:13:22
Oscar 19 25 Jun 14:10:26 14:13:51 18° 257° (WSW) 14:17:17 437.125/150
ITUPSAT 1 25 Jun 14:21:55 14:26:22 41° 102° (ESE) 14:30:51 437.325
AO-7 25 Jun 14:22:00 14:29:13 34° 74° (ENE) 14:36:24 .
BEESAT 25 Jun 14:31:58 14:36:37 58° 102° (ESE) 14:41:18 436.000
ITAMSAT 1 25 Jun 14:45:32 14:50:30 46° 77° (ENE) 14:55:26 435.822/435.867
SRMSAT 25 Jun 14:54:21 14:57:38 15° 348° (NNW) 15:00:56 437.500
JUGNU 25 Jun 15:03:51 15:04:44 10° 4° (N) 15:05:37 437.505
KKS-1 25 Jun 15:43:54 15:47:12 20° 102° (ESE) 15:50:30 437.445
MOZHAYETS 4 25 Jun 15:44:03 15:47:47 25° 282° (WNW) 15:51:32
Tancredo 1 25 Jun 16:06:33 16:08:22 15° 54° (NE) 16:10:12 437.200
AO-7 25 Jun 16:14:28 16:21:36 33° 254° (WSW) 16:28:46 .
STARS 25 Jun 16:14:54 16:17:51 18° 102° (ESE) 16:20:49 437.465
CUBESAT XI-V 25 Jun 16:23:15 16:27:49 67° 281° (WNW) 16:32:25 437.345
ITAMSAT 1 25 Jun 16:29:19 16:29:39 10° 257° (WSW) 16:29:59 435.822/435.867
JUGNU 25 Jun 16:50:54 16:54:44 17° 14° (NNE) 16:58:33 437.505
KKS-1 25 Jun 17:20:28 17:23:28 18° 282° (WNW) 17:26:30 437.445
CUTE-I 25 Jun 17:26:25 17:31:11 34° 77° (ENE) 17:35:55 437.470
NUDT-PHONESAT 25 Jun 17:33:01 17:36:25 32° 79° (E) 17:39:47 437.300
Tancredo 1 25 Jun 17:42:17 17:43:44 13° 234° (SW) 17:45:13 437.200
XW-2F 25 Jun 17:47:18 17:51:08 81° 79° (E) 17:54:58 145.980 - 146.000
DOVE 4 25 Jun 17:49:24 17:53:10 32° 258° (WSW) 17:56:51 437.250
STARS 25 Jun 17:50:42 17:53:55 20° 282° (WNW) 17:57:08 437.465
XW-2D 25 Jun 17:51:06 17:54:57 78° 259° (WSW) 17:58:46 145.860 - 145.880
ISS 25 Jun 17:57:10 17:59:57 25° 234° (SW) 18:02:43 437.550
LilacSat-2 25 Jun 17:59:06 18:02:54 54° 259° (WSW) 18:06:42 437.200
XW-2B 25 Jun 18:00:08 18:03:56 57° 259° (W) 18:07:42 145.730 - 145.750
XW-2C 25 Jun 18:15:57 18:19:23 31° 259° (WSW) 18:22:48 145.795 - 145.815
RS-15 25 Jun 18:25:48 18:36:51 50° 110° (ESE) 18:48:19 29.354- 29.394
XW-2A 25 Jun 18:27:50 18:29:45 14° 79° (ENE) 18:31:41 145.665 - 145.685
SEEDS 25 Jun 18:29:06 18:31:35 15° 79° (ENE) 18:34:02 437.485
STRAND 1 25 Jun 18:29:11 18:33:36 30° 103° (ESE) 18:38:02 437.568
KAITUO 1B 25 Jun 18:30:55 18:34:04 25° 258° (WSW) 18:37:14 145.475/437.950
HO-68 25 Jun 18:32:16 18:39:02 44° 76° (ENE) 18:45:45 435.675
AO-85 25 Jun 18:35:10 18:39:46 78° 290° (WNW) 18:44:01 145.980
SRMSAT 25 Jun 18:36:00 18:38:15 12° 9° (N) 18:40:29 437.500
JUGNU 25 Jun 18:38:39 18:44:12 39° 20° (NNE) 18:49:43 437.505
BEESAT 3 25 Jun 18:42:53 18:46:42 58° 111° (ESE) 18:50:31 437.485
NO-84 25 Jun 18:43:16 18:46:27 60° 122° (ESE) 18:49:56 435.350 FM
CUTE 1.7 + AOD 2 25 Jun 18:44:27 18:48:35 48° 79° (E) 18:52:41 437.475
CUBEBUG 2 25 Jun 18:53:57 18:57:37 26° 78° (ENE) 19:01:23 437.445
CUTE-I 25 Jun 19:07:58 19:10:56 15° 257° (WSW) 19:13:53 437.470
AAUSAT CUBESAT 2 25 Jun 19:19:27 19:23:07 30° 79° (ENE) 19:26:44 437.432
ZACube-1 25 Jun 19:24:07 19:27:02 17° 78° (ENE) 19:29:59 437.345
UWE-3 25 Jun 19:27:31 19:31:40 41° 78° (ENE) 19:35:55 435.000/436.395/437.385
YUBILEINY 25 Jun 19:31:24 19:32:38 10° 93° (E) 19:33:53 435.215
O/OREOS (USA 219) 25 Jun 19:36:16 19:40:36 41° 104° (ESE) 19:44:54 437.305
BEESAT 2 25 Jun 19:41:22 19:45:14 77° 289° (WNW) 19:49:09 435.950
XW-2A 25 Jun 20:00:45 20:02:13 12° 259° (WSW) 20:03:42 145.665 - 145.685
SEEDS 25 Jun 20:03:50 20:06:59 20° 258° (WSW) 20:10:08 437.485
STRAND 1 25 Jun 20:09:24 20:12:30 16° 283° (WNW) 20:15:36 437.568
HO-68 25 Jun 20:21:27 20:26:24 20° 255° (WSW) 20:31:22 435.675
SRMSAT 25 Jun 20:23:28 20:28:09 24° 17° (NNE) 20:32:50 437.500
AO-73 25 Jun 20:23:40 20:28:05 75° 259° (WSW) 20:32:34 145.935
FO-29 25 Jun 20:24:11 20:29:38 22° 102° (ESE) 20:34:47 435.910
JUGNU 25 Jun 20:27:20 20:33:18 77° 201° (SSW) 20:39:12 437.505
CUBEBUG 2 25 Jun 20:32:00 20:33:59 13° 259° (W) 20:36:01 437.445
UNISAT 6 25 Jun 20:38:56 20:40:12 11° 102° (ESE) 20:41:26 437.425
RS-15 25 Jun 20:39:16 20:48:55 30° 292° (WNW) 20:58:59 29.354- 29.394
DELFI C3 25 Jun 20:47:22 20:50:44 27° 79° (E) 20:54:04 145.870
Oscar 11 25 Jun 20:51:28 20:55:34 40° 258° (WSW) 20:59:38 .
ZACube-1 25 Jun 20:59:43 21:03:02 21° 259° (WSW) 21:06:23 437.345
M-CUBED/EXP-1 PRIME 25 Jun 21:05:45 21:09:56 79° 106° (ESE) 21:14:26 437.505
PCSat 25 Jun 21:06:08 21:09:03 15° 70° (ENE) 21:11:58 145.827
YUBILEINY 25 Jun 21:20:17 21:29:02 78° 273° (W) 21:37:49 435.215
PRISM 25 Jun 21:23:32 21:27:33 53° 102° (ESE) 21:31:37 437.425
TIGRISAT 25 Jun 21:30:10 21:34:36 57° 102° (ESE) 21:38:55 435.000
EO-88 25 Jun 21:46:51 21:50:25 50° 259° (W) 21:53:59 145.990 - 145.960
FO-29 25 Jun 22:07:09 22:14:23 45° 284° (WNW) 22:21:09 435.910
LO-87 25 Jun 22:10:30 22:13:13 21° 79° (ENE) 22:15:53 145.935 - 145.965
SRMSAT 25 Jun 22:11:42 22:17:32 61° 21° (NNE) 22:23:22 437.500
UNISAT 6 25 Jun 22:12:40 22:16:39 31° 282° (WNW) 22:20:33 437.425
JUGNU 25 Jun 22:17:24 22:22:26 29° 198° (SSW) 22:27:28 437.505
PCSat 25 Jun 22:47:17 22:52:11 36° 251° (WSW) 22:57:05 145.827
POLYITAN 1 25 Jun 23:00:48 23:04:32 31° 102° (ESE) 23:08:16 437.675
ESTCUBE 1 25 Jun 23:09:47 23:14:19 90° 209° (SSW) 23:18:50 437.505/2401.250
QB50P2 25 Jun 23:11:14 23:15:21 50° 102° (ESE) 23:19:28 145.880/145.840
VELOX 1 25 Jun 23:13:27 23:15:45 14° 78° (ENE) 23:18:04 145.980
BUGSAT 1 25 Jun 23:27:29 23:28:21 11° 102° (ESE) 23:29:14 437.445
AIST 2D 25 Jun 23:29:36 23:32:27 24° 281° (W) 23:35:20 435.315
SPROUT 25 Jun 23:32:41 23:36:25 30° 78° (ENE) 23:40:08 437.525
SO-50 25 Jun 23:32:46 23:36:35 26° 68° (ENE) 23:40:26 436.795
EO-79 25 Jun 23:35:36 23:39:49 77° 283° (WNW) 23:44:03 145.935-145.965
DUCHIFAT 1 25 Jun 23:49:36 23:53:44 62° 282° (WNW) 23:57:54 145.980
NANOSAT C BR1 25 Jun 23:58:22 00:02:18 39° 282° (WNW) 00:06:14 145.865
SRMSAT 26 Jun 00:01:04 00:06:45 48° 200° (SSW) 00:12:27 437.500
JUGNU 26 Jun 00:09:13 00:12:02 14° 191° (S) 00:14:52 437.505
Gurwin Techsat 1B 26 Jun 00:22:17 00:23:20 11° 103° (ESE) 00:24:24 435.225
VELOX 1 26 Jun 00:48:25 00:51:56 24° 258° (WSW) 00:55:26 145.980
BUGSAT 1 26 Jun 00:59:51 01:03:27 28° 282° (WNW) 01:07:01 437.445
50 SAT 26 Jun 01:03:00 01:05:49 24° 258° (WSW) 01:08:38 437.505
Oscar 19 26 Jun 01:03:16 01:08:21 72° 102° (ESE) 01:13:30 437.125/150
DX 1 26 Jun 01:06:53 01:11:07 54° 258° (WSW) 01:15:20 434.975-435.025
SPROUT 26 Jun 01:11:39 01:12:02 10° 258° (WSW) 01:12:26 437.525
SO-50 26 Jun 01:14:08 01:16:48 15° 247° (WSW) 01:19:30 436.795
UKube-1 26 Jun 01:23:46 01:27:57 51° 258° (WSW) 01:32:07 .
SRMSAT 26 Jun 01:51:59 01:56:14 20° 195° (SSW) 02:00:30 437.500
Gurwin Techsat 1B 26 Jun 01:57:54 02:02:59 47° 282° (WNW) 02:08:04 435.225
MOZHAYETS 4 26 Jun 02:23:48 02:27:33 25° 78° (ENE) 02:31:19
ITUPSAT 1 26 Jun 02:43:48 02:48:37 82° 78° (ENE) 02:53:25 437.325
AO-7 26 Jun 02:47:28 02:55:34 55° 106° (ESE) 03:03:38 .
BEESAT 26 Jun 02:53:43 02:58:28 71° 257° (WSW) 03:03:14 436.000
CUBESAT XI-V 26 Jun 03:08:31 03:09:03 10° 78° (ENE) 03:09:36 437.345
ITAMSAT 1 26 Jun 03:20:16 03:25:25 65° 283° (WNW) 03:30:36 435.822/435.867
SRMSAT 26 Jun 03:44:43 03:46:17 11° 186° (S) 03:47:52 437.500
JUGNU 26 Jun 03:49:50 03:52:17 13° 170° (S) 03:54:45 437.505
KKS-1 26 Jun 03:55:47 03:59:37 29° 78° (ENE) 04:03:25 437.445
MOZHAYETS 4 26 Jun 04:01:39 04:04:26 16° 258° (WSW) 04:07:12
STARS 26 Jun 04:25:04 04:28:35 24° 78° (ENE) 04:32:06 437.465
DOVE 4 26 Jun 04:31:49 04:35:56 24° 102° (ESE) 04:40:06 437.250
CUBESAT XI-V 26 Jun 04:41:51 04:46:09 37° 258° (WSW) 04:50:27 437.345
AO-7 26 Jun 04:42:25 04:47:55 19° 287° (WNW) 04:53:26 .
Tancredo 1 26 Jun 05:08:37 05:11:10 26° 305° (NW) 05:13:44 437.200
NUDT-PHONESAT 26 Jun 05:24:48 05:27:43 23° 101° (E) 05:30:40 437.300
ISS 26 Jun 05:30:48 05:33:54 41° 306° (NW) 05:37:00 437.550
KKS-1 26 Jun 05:34:20 05:35:53 12° 257° (WSW) 05:37:25 437.445
SRMSAT 26 Jun 05:35:45 05:36:41 10° 175° (S) 05:37:36 437.500
JUGNU 26 Jun 05:37:09 05:41:58 26° 162° (SSE) 05:46:47 437.505
XW-2F 26 Jun 05:40:35 05:44:14 60° 102° (ESE) 05:47:54 145.980 - 146.000
XW-2D 26 Jun 05:44:44 05:48:27 81° 101° (E) 05:52:11 145.860 - 145.880
LilacSat-2 26 Jun 05:53:24 05:57:07 68° 281° (W) 06:00:51 437.200
XW-2B 26 Jun 05:53:44 05:57:27 74° 281° (WNW) 06:01:11 145.730 - 145.750
STARS 26 Jun 06:02:25 06:04:40 14° 258° (WSW) 06:06:54 437.465
CUTE-I 26 Jun 06:05:04 06:10:26 81° 284° (WNW) 06:15:49 437.470
DOVE 4 26 Jun 06:09:16 06:13:18 23° 281° (WNW) 06:17:24 437.250
RS-15 26 Jun 06:09:22 06:20:00 42° 68° (ENE) 06:30:06 29.354- 29.394
XW-2C 26 Jun 06:09:28 06:12:56 38° 281° (W) 06:16:26 145.795 - 145.815
KAITUO 1B 26 Jun 06:22:53 06:26:12 32° 281° (W) 06:29:31 145.475/437.950
NO-84 26 Jun 06:27:14 06:31:11 54° 58° (ENE) 06:34:49 435.350 FM
